Airfield :
LOGIN :

Register | Disclaimer

   EN    FR    IT 

 










Legend :    VFR   Marginal VFR   IFR   Intensive IFR   Very Intensive IFR
Visi :
Ceiling :
>= 8 km
>= 3000ft
5 to 8 km
1000 to 3000 ft
1500m to 5 km
500 to 1000 ft
800 to 1500m
200 to 500 ft
< 800m
< 200 ft
Symbols :   Thunderstorms  Fog  Heavy snow  Heavy precipitations  Wind > 20 kt
SIGMETs :     Misc.  Thunderstorms  Icing  Turbulence  Mountain Waves  Volcanic Ashes







- Airport Elevation : 187 ft


LPMR - Monte Real Air Base

CURRENT METAR :
  • 241000Z 35006KT 310V020 CAVOK 19/16 Q1017

EXPIRED METARs :
  • 240900Z VRB02KT 7000 BKN004 15/15 Q1016
  • 240800Z 03003KT 360V070 0500 FG VV002 14/14 Q1016

TAF TAF LPMR
Valid from the 24 at 06:00 until the 25 at 06:00 UTC


240510Z 2406/2506 VRB02KT 5000 BR SCT003
PROB40 2406/2409 0100 FG BKN001
BECMG 2408/2411 34010KT 9999 NSW SCT015
TEMPO 2413/2418 35012G22KT
BECMG 2422/2424 5000 BR BKN007
PROB30 2501/2506 0500 FG BKN002
No reported NOTAMs for that airfield.



MET'MAP, your aeronautical weather chart ! - Copyright ORBIFLY December 2007 - Disclaimer

ORBIFLY MET'MAP TEAM :

Programming & Development : Alexandra Zaïnal
Concept & Development : Baudouin d'Aumeries
Co-Development & Prog : Marc-Olivier Méhu
Technical & hardware support : Manuel Goepfert

Contact : metmap@orbifly.com




SOURCES & CREDITS :

   NOAA